• în Republica Moldova
  • Lista ţărilor
  • Pe 7 zile
  • Temperatura apei
  • Hartă satelitară
  • Meteo pe hartă
  • Widget-uri
  • user-avatar
    Intrare

    Meteo pe oră la Vlorë

    Astăzi, 24 August, Joi

    Timp Temperatura Precipitaţii Vânt Presiune Umiditate
    00:00 +22°C° 0 mm 4 m/s 763 mmHg 44%
    01:00 +22°C° 0 mm 4 m/s 763 mmHg 43%
    02:00 +22°C° 0 mm 4 m/s 763 mmHg 42%
    03:00 +22°C° 0 mm 4 m/s 763 mmHg 42%
    04:00 +21°C° 0 mm 4 m/s 763 mmHg 42%
    05:00 +23°C° 0 mm 4 m/s 763 mmHg 41%
    06:00 +25°C° 0 mm 3 m/s 763 mmHg 39%
    07:00 +26°C° 0 mm 3 m/s 763 mmHg 38%
    08:00 +28°C° 0 mm 3 m/s 763 mmHg 34%
    09:00 +30°C° 0 mm 3 m/s 764 mmHg 31%
    10:00 +33°C° 0 mm 3 m/s 764 mmHg 28%
    11:00 +34°C° 0 mm 4 m/s 764 mmHg 26%
    12:00 +35°C° 0 mm 5 m/s 764 mmHg 25%
    13:00 +35°C° 0 mm 5 m/s 763 mmHg 23%
    14:00 +35°C° 0 mm 6 m/s 763 mmHg 24%
    15:00 +35°C° 0 mm 6 m/s 763 mmHg 24%
    16:00 +34°C° 0 mm 6 m/s 763 mmHg 25%
    17:00 +32°C° 0 mm 6 m/s 763 mmHg 29%
    18:00 +29°C° 0 mm 5 m/s 763 mmHg 33%
    19:00 +27°C° 0 mm 5 m/s 763 mmHg 38%
    20:00 +26°C° 0 mm 5 m/s 764 mmHg 37%
    21:00 +26°C° 0 mm 4 m/s 764 mmHg 37%
    22:00 +25°C° 0 mm 4 m/s 764 mmHg 37%
    23:00 +25°C° 0 mm 4 m/s 764 mmHg 37%

    Mâine, 25 August, Vineri

    Timp Temperatura Precipitaţii Vânt Presiune Umiditate
    00:00 +25°C° 0 mm 3 m/s 764 mmHg 36%
    01:00 +25°C° 0 mm 3 m/s 764 mmHg 36%
    02:00 +25°C° 0 mm 3 m/s 764 mmHg 35%
    03:00 +24°C° 0 mm 3 m/s 764 mmHg 35%
    04:00 +24°C° 0 mm 3 m/s 764 mmHg 35%
    05:00 +25°C° 0 mm 3 m/s 764 mmHg 33%
    06:00 +27°C° 0 mm 3 m/s 764 mmHg 31%
    07:00 +28°C° 0 mm 3 m/s 764 mmHg 30%
    08:00 +30°C° 0 mm 3 m/s 764 mmHg 26%
    09:00 +32°C° 0 mm 2 m/s 764 mmHg 23%
    10:00 +36°C° 0 mm 2 m/s 764 mmHg 19%
    11:00 +36°C° 0 mm 2 m/s 764 mmHg 18%
    12:00 +37°C° 0 mm 3 m/s 763 mmHg 17%
    13:00 +38°C° 0 mm 3 m/s 763 mmHg 17%
    14:00 +37°C° 0 mm 4 m/s 763 mmHg 18%
    15:00 +37°C° 0 mm 4 m/s 762 mmHg 20%
    16:00 +36°C° 0 mm 4 m/s 762 mmHg 21%
    17:00 +34°C° 0 mm 4 m/s 762 mmHg 26%
    18:00 +30°C° 0 mm 4 m/s 762 mmHg 31%
    19:00 +28°C° 0 mm 3 m/s 762 mmHg 36%
    20:00 +28°C° 0 mm 3 m/s 763 mmHg 35%
    21:00 +27°C° 0 mm 3 m/s 763 mmHg 35%
    22:00 +27°C° 0 mm 3 m/s 763 mmHg 34%
    23:00 +26°C° 0 mm 3 m/s 763 mmHg 33%

    Poimâine, 26 August, Sâmbătă

    Timp Temperatura Precipitaţii Vânt Presiune Umiditate
    00:00 +26°C° 0 mm 2 m/s 763 mmHg 32%
    01:00 +26°C° 0 mm 2 m/s 763 mmHg 32%
    02:00 +25°C° 0 mm 2 m/s 762 mmHg 32%
    03:00 +25°C° 0 mm 2 m/s 762 mmHg 32%
    04:00 +24°C° 0 mm 2 m/s 762 mmHg 33%
    05:00 +26°C° 0 mm 2 m/s 762 mmHg 32%
    06:00 +27°C° 0 mm 2 m/s 762 mmHg 32%
    07:00 +28°C° 0 mm 2 m/s 762 mmHg 31%
    08:00 +31°C° 0 mm 2 m/s 762 mmHg 28%
    09:00 +33°C° 0 mm 1 m/s 762 mmHg 24%
    10:00 +36°C° 0 mm 1 m/s 762 mmHg 20%
    11:00 +37°C° 0 mm 2 m/s 762 mmHg 20%
    12:00 +38°C° 0 mm 2 m/s 762 mmHg 19%
    13:00 +38°C° 0 mm 3 m/s 761 mmHg 19%
    14:00 +38°C° 0 mm 3 m/s 761 mmHg 20%
    15:00 +37°C° 0 mm 3 m/s 761 mmHg 21%
    16:00 +37°C° 0 mm 4 m/s 761 mmHg 22%
    17:00 +34°C° 0 mm 3 m/s 761 mmHg 26%
    18:00 +31°C° 0 mm 3 m/s 761 mmHg 29%
    19:00 +29°C° 0 mm 3 m/s 761 mmHg 33%
    20:00 +28°C° 0 mm 3 m/s 761 mmHg 33%
    21:00 +28°C° 0 mm 3 m/s 761 mmHg 32%
    22:00 +27°C° 0 mm 3 m/s 761 mmHg 32%
    23:00 +27°C° 0 mm 3 m/s 761 mmHg 33%

    27 August, Duminică

    Timp Temperatura Precipitaţii Vânt Presiune Umiditate
    00:00 +27°C° 0 mm 3 m/s 761 mmHg 34%
    01:00 +26°C° 0 mm 2 m/s 761 mmHg 35%
    02:00 +26°C° 0 mm 3 m/s 761 mmHg 36%
    03:00 +26°C° 0 mm 3 m/s 761 mmHg 37%
    04:00 +26°C° 0 mm 3 m/s 761 mmHg 38%
    05:00 +27°C° 0 mm 3 m/s 761 mmHg 36%
    06:00 +28°C° 0 mm 3 m/s 761 mmHg 34%
    07:00 +29°C° 0 mm 2 m/s 761 mmHg 32%
    08:00 +32°C° 0 mm 2 m/s 761 mmHg 29%
    09:00 +35°C° 0 mm 2 m/s 761 mmHg 25%
    10:00 +37°C° 0 mm 2 m/s 761 mmHg 21%
    11:00 +38°C° 0 mm 3 m/s 761 mmHg 21%
    12:00 +40°C° 0 mm 4 m/s 760 mmHg 20%
    13:00 +40°C° 0 mm 5 m/s 760 mmHg 19%
    14:00 +40°C° 0 mm 5 m/s 760 mmHg 21%
    15:00 +39°C° 0 mm 5 m/s 759 mmHg 22%
    16:00 +39°C° 0 mm 5 m/s 759 mmHg 23%
    17:00 +35°C° 0 mm 5 m/s 759 mmHg 28%
    18:00 +33°C° 0 mm 5 m/s 759 mmHg 32%
    19:00 +29°C° 0 mm 4 m/s 760 mmHg 36%
    20:00 +29°C° 0 mm 4 m/s 760 mmHg 34%
    21:00 +29°C° 0 mm 4 m/s 760 mmHg 33%
    22:00 +28°C° 0 mm 3 m/s 760 mmHg 32%
    23:00 +28°C° 0 mm 3 m/s 760 mmHg 31%

    28 August, Luni

    Timp Temperatura Precipitaţii Vânt Presiune Umiditate
    00:00 +28°C° 0 mm 3 m/s 760 mmHg 31%
    01:00 +28°C° 0 mm 3 m/s 760 mmHg 31%
    02:00 +27°C° 0 mm 3 m/s 760 mmHg 31%
    03:00 +27°C° 0 mm 3 m/s 760 mmHg 31%
    04:00 +27°C° 0 mm 4 m/s 760 mmHg 31%
    05:00 +28°C° 0 mm 3 m/s 760 mmHg 30%
    06:00 +29°C° 0 mm 3 m/s 760 mmHg 28%
    07:00 +31°C° 0 mm 3 m/s 760 mmHg 27%
    08:00 +34°C° 0 mm 3 m/s 760 mmHg 25%
    09:00 +36°C° 0 mm 3 m/s 760 mmHg 23%
    10:00 +38°C° 0 mm 3 m/s 760 mmHg 20%
    11:00 +40°C° 0 mm 4 m/s 759 mmHg 20%
    12:00 +40°C° 0 mm 5 m/s 759 mmHg 20%
    13:00 +41°C° 0 mm 6 m/s 758 mmHg 19%
    14:00 +40°C° 0 mm 6 m/s 758 mmHg 21%
    15:00 +40°C° 0 mm 6 m/s 758 mmHg 23%
    16:00 +39°C° 0 mm 6 m/s 758 mmHg 25%
    17:00 +36°C° 0 mm 6 m/s 758 mmHg 30%
    18:00 +33°C° 0 mm 6 m/s 758 mmHg 34%
    19:00 +30°C° 0 mm 5 m/s 758 mmHg 39%
    20:00 +29°C° 0 mm 5 m/s 758 mmHg 38%
    21:00 +29°C° 0 mm 4 m/s 759 mmHg 37%
    22:00 +29°C° 0 mm 4 m/s 759 mmHg 35%
    23:00 +28°C° 0 mm 4 m/s 759 mmHg 34%

    29 August, Marţi

    Timp Temperatura Precipitaţii Vânt Presiune Umiditate
    00:00 +28°C° 0 mm 4 m/s 758 mmHg 33%
    01:00 +28°C° 0 mm 4 m/s 758 mmHg 32%
    02:00 +28°C° 0 mm 4 m/s 758 mmHg 32%
    03:00 +28°C° 0 mm 4 m/s 758 mmHg 32%
    04:00 +27°C° 0 mm 4 m/s 758 mmHg 31%
    05:00 +29°C° 0 mm 4 m/s 759 mmHg 31%
    06:00 +30°C° 0 mm 4 m/s 759 mmHg 30%
    07:00 +31°C° 0 mm 3 m/s 759 mmHg 29%
    08:00 +34°C° 0 mm 3 m/s 759 mmHg 26%
    09:00 +37°C° 0 mm 3 m/s 759 mmHg 23%
    10:00 +39°C° 0 mm 2 m/s 759 mmHg 21%
    11:00 +39°C° 0 mm 3 m/s 759 mmHg 20%
    12:00 +40°C° 0 mm 3 m/s 758 mmHg 19%
    13:00 +41°C° 0 mm 4 m/s 758 mmHg 19%
    14:00 +41°C° 0 mm 4 m/s 758 mmHg 20%
    15:00 +41°C° 0 mm 4 m/s 758 mmHg 21%
    16:00 +40°C° 0 mm 4 m/s 758 mmHg 22%
    17:00 +37°C° 0 mm 4 m/s 758 mmHg 27%
    18:00 +34°C° 0 mm 4 m/s 758 mmHg 32%
    19:00 +32°C° 0 mm 4 m/s 758 mmHg 37%
    20:00 +32°C° 0 mm 4 m/s 759 mmHg 38%
    21:00 +30°C° 0 mm 3 m/s 759 mmHg 38%
    22:00 +30°C° 0 mm 3 m/s 759 mmHg 38%
    23:00 +30°C° 0 mm 3 m/s 759 mmHg 37%
    Arată mai mult